Flag for Netherlands Weather past 2 weeks in Amersfoort, Netherlands

Now
63 °F

Overcast.


Feels Like: 63 °F
Forecast: 65 / 80 °F
Wind: 2 mph from Southeast

Location: Deelen

Current Time: Aug 2, 2014 at 1:35:28 AM

Latest Report: Aug 2, 2014 at 12:55 AM


Visibility: N/A

Pressure: 29.80 "Hg

Humidity: 88%

Dew point: 59 °F

Location of AmersfoortLocation

Historic Weather in Amersfoort — Graph

°F

Amersfoort temperature yesterday

Maximum temperature yesterday: 79 °F (at 2:55 PM)
Minimum temperature yesterday: 54 °F (at 5:55 AM)
Average temperature yesterday: 68 °F

Past Weeks' High & Low Weather Summary

 TemperatureHumidityPressure
High93 °F (Jul 19, 5:25 PM)100% (Jul 20, 8:55 PM)30.12 "Hg (Jul 20, 8:55 PM)
Low50 °F (Jul 31, 6:25 AM)26% (Jul 19, 2:25 PM)29.74 "Hg (Jul 20, 3:25 AM)
Average70 °F77%29.93 "Hg
* Reported Jul 18 12:55 AM — Aug 2 12:25 AM, Amersfoort, Weather by CustomWeather, © 2014

Note: Actual official high and low records may vary slightly from our data, if they occured in-between our weather recording intervals... More about our weather records

Advertising

Amersfoort weather history for previous 24 hours

 ConditionsComfort  
Time TempWeatherWind HumidityBarometerVisibility
12:25 AM
Aug 2
63 °FOvercast.1 mph88%29.80 "HgN/A
11:55 PM
Aug 1
63 °FOvercast.2 mph88%29.80 "HgN/A
11:25 PM63 °FPassing clouds.5 mph88%29.80 "HgN/A
10:55 PM64 °FMild.2 mph83%29.80 "HgN/A
10:25 PM64 °FMild.1 mph88%29.80 "HgN/A
9:55 PM66 °FMild.1 mph83%29.80 "HgN/A
9:25 PM68 °FOvercast.1 mph83%29.77 "HgN/A
8:55 PM68 °FPassing clouds.1 mph83%29.77 "HgN/A
8:25 PM72 °FMild.1 mph69%29.77 "HgN/A
7:55 PM75 °FPartly sunny.2 mph65%29.80 "HgN/A
7:25 PM77 °FWarm.5 mph54%29.80 "HgN/A
6:55 PM77 °FWarm.5 mph54%29.80 "HgN/A
6:25 PM79 °FPassing clouds.6 mph45%29.80 "HgN/A
5:55 PM79 °FWarm.7 mph45%29.80 "HgN/A
5:25 PM79 °FScattered clouds.8 mph48%29.80 "HgN/A
4:55 PM79 °FPassing clouds.8 mph51%29.80 "HgN/A
4:25 PM79 °FPassing clouds.9 mph51%29.80 "HgN/A
3:55 PM77 °FPartly sunny.6 mph54%29.80 "HgN/A
3:25 PM79 °FPassing clouds.8 mph51%29.80 "HgN/A
2:55 PM79 °FWarm.9 mph51%29.83 "HgN/A
2:25 PM77 °FScattered clouds.8 mph54%29.83 "HgN/A
1:55 PM77 °FBroken clouds.7 mph54%29.83 "HgN/A
1:25 PM77 °FScattered clouds.8 mph57%29.83 "HgN/A
12:55 PM75 °FPartly sunny.7 mph57%29.83 "HgN/A
12:25 PM75 °FPartly sunny.7 mph54%29.83 "HgN/A
11:55 AM75 °FPassing clouds.2 mph57%29.86 "HgN/A
11:25 AM75 °FPassing clouds.2 mph57%29.86 "HgN/A
10:55 AM73 °FMild.2 mph61%29.86 "HgN/A
10:25 AM72 °FPassing clouds.2 mph61%29.86 "HgN/A
9:55 AM70 °FPassing clouds.1 mph64%29.86 "HgN/A
9:25 AM68 °FPassing clouds.2 mph69%29.86 "HgN/A
8:55 AM66 °FPassing clouds.1 mph73%29.86 "HgN/A
8:25 AM63 °FFog.No wind88%29.86 "Hg6 mi
7:55 AM59 °FFog.1 mph94%29.86 "Hg6 mi
7:25 AM57 °FCool.1 mph94%29.86 "HgN/A
6:55 AM55 °FPassing clouds.1 mph100%29.86 "HgN/A
6:25 AM54 °FFog.1 mph100%29.86 "Hg5 mi
5:55 AM54 °FFog.2 mph94%29.86 "Hg4 mi
5:25 AM55 °FCool.2 mph94%29.86 "HgN/A
4:55 AM55 °FPassing clouds.2 mph94%29.89 "HgN/A
4:25 AM55 °FPassing clouds.2 mph94%29.89 "HgN/A
3:55 AM57 °FPassing clouds.5 mph94%29.89 "HgN/A
3:25 AM57 °FCool.2 mph94%29.89 "HgN/A
2:55 AM57 °FCool.1 mph94%29.89 "HgN/A
2:25 AM59 °FPassing clouds.2 mph88%29.89 "HgN/A
1:55 AM59 °FPassing clouds.2 mph88%29.89 "HgN/A
1:25 AM59 °FPassing clouds.2 mph94%29.89 "HgN/A
Weather by CustomWeather, © 2014

See weather overviewHow to use our weather pages